Warning: Javascript must be enabled to use all the features on this page!


Page Loading - Please Wait...

Click to hideNews Bulletins

Peak Streamflow for the Nation

USGS 09051050 STRAIGHT CR BLW LASKEY GULCH NR DILLON, CO

Summit County, Colorado
Hydrologic Unit Code 14010002
Latitude  39°38'23", Longitude 106°02'23" NAD27
Drainage area 18.4  square miles
Gage datum 9,070 feet above NGVD29
Output formats
Table
Graph
Tab-separated file
peakfq (watstore) format
Reselect output format
Water
Year
Date Gage
Height
(feet)
Stream-
flow
(cfs)
1987 1987-06-07 4.81 55.0
1988 1988-06-10 5.28 104
1989 1989-05-29 5.092 76.0
1990 1990-07-05 5.42 146
1991 1991-06-11 5.32 136
1992 1992-06-13 4.712 63.0
1993 1993-06-16 5.30 168
1994 1994-05-31 4.89 81.0
1995 1995-06-17 5.78 416
1996 1996-06-22 5.35 205
1997 1997-06-19 5.35 205
1998 1998-07-10 4.92 87.0
1999 1999-06-23 5.11 138
2000 2000-05-30 5.27 177
2001 2001-06-02 4.96 95.0
2002 2002-05-20 4.40 22.0
2003 2003-06-19 5.59 289
2004 2004-06-07 4.76 48.0
2005 2005-06-22 5.07 113
2006 2006-06-06 5.13 130
2007 2007-06-17 5.12 127
2008 2008-06-20 5.29 133
2009 2009-06-26 5.21 135
2010 2010-05-28 5.67 339
2011 2011-07-18 5.71 261
2012 2012-05-22 4.462 31.0
2013 2013-06-09 5.32 160
2014 2014-06-02 5.41 185
2015 2015-06-11 5.28 1519
2016 2016-06-11 5.302 1569
2017 2017-06-12 5.332 136
2018 2018-05-25 5.01 79.9
2019 2019-06-30 5.322 146
2020 2020-06-01 5.042 95.4
2021 2021-06-05 5.09 105
?
  Peak Gage-Height Qualification Codes.
?
  Peak Streamflow Qualification Codes.